EDT,Max TemperatureF,Mean TemperatureF,Min TemperatureF,Max Dew PointF,MeanDew PointF,Min DewpointF,Max Humidity, Mean Humidity, Min Humidity, Max Sea Level PressureIn, Mean Sea Level PressureIn, Min Sea Level PressureIn, Max VisibilityMiles, Mean VisibilityMiles, Min VisibilityMiles, Max Wind SpeedMPH, Mean Wind SpeedMPH, Max Gust SpeedMPH,PrecipitationIn, CloudCover, Events, WindDirDegrees
2012-3-1,73,67,61,63,54,39,100,73,29,29.94,29.90,29.85,10,10,7,16,10,24,0.00,3,,251
2012-3-2,75,67,59,64,60,55,100,83,53,29.91,29.82,29.65,10,9,2,13,6,20,0.31,6,Rain-Thunderstorm,210
2012-3-3,64,56,48,63,47,22,100,75,29,29.84,29.73,29.63,10,7,2,13,9,24,1.36,7,Rain-Thunderstorm,277
2012-3-4,48,44,39,26,21,16,51,39,28,30.06,29.93,29.78,10,10,10,24,11,43,0.00,1,,291
2012-3-5,54,46,37,28,20,12,52,35,20,30.48,30.23,29.96,10,10,10,28,11,39,0.00,1,,288
2012-3-6,57,46,34,25,21,16,67,41,26,30.61,30.54,30.48,10,10,8,12,6,17,0.00,0,,96
2012-3-7,61,52,44,48,40,24,77,64,44,30.57,30.50,30.39,10,10,10,10,9,,0.00,7,,87
2012-3-8,72,61,50,56,51,48,96,74,46,30.39,30.28,30.08,10,9,2,17,6,29,0.11,7,Rain,160
2012-3-9,63,56,48,56,45,23,100,74,24,30.31,30.21,30.13,10,8,3,14,8,25,0.75,5,Rain,293
2012-3-10,62,50,39,28,25,23,62,39,22,30.46,30.39,30.31,10,10,10,13,5,20,0.00,0,,84
2012-3-11,63,53,43,46,37,27,67,54,44,30.53,30.44,30.36,10,10,10,14,9,24,0.00,3,,88
2012-3-12,57,56,54,56,53,46,100,89,67,30.40,30.33,30.27,10,7,1,12,6,,0.03,8,Rain,90
2012-3-13,73,64,55,61,57,55,100,90,55,30.29,30.25,30.15,10,6,1,10,3,,0.16,6,Rain-Thunderstorm,253
2012-3-14,79,66,54,59,53,46,100,65,33,30.27,30.22,30.17,10,9,3,12,5,20,0.00,0,,261
2012-3-15,82,68,55,56,52,46,83,59,30,30.28,30.23,30.18,10,10,8,8,2,,0.01,2,Rain-Thunderstorm,287
2012-3-16,80,67,55,56,54,51,93,68,39,30.29,30.21,30.12,10,10,10,16,7,26,0.15,2,Rain-Thunderstorm,301
2012-3-17,78,68,59,59,55,53,93,68,47,30.28,30.20,30.14,10,9,4,10,4,,0.21,4,Rain,11
2012-3-18,80,70,59,59,55,50,96,65,39,30.30,30.22,30.16,10,10,10,9,3,,0.01,3,Rain-Thunderstorm,127
2012-3-19,82,70,57,58,54,50,90,59,33,30.21,30.16,30.09,10,10,9,6,2,,0.00,0,,141
2012-3-20,82,70,59,58,55,53,87,59,39,30.19,30.13,30.08,10,10,7,8,4,,0.00,0,,126
2012-3-21,73,67,61,59,57,55,90,70,52,30.29,30.21,30.16,10,10,8,10,6,17,0.00,5,,107
2012-3-22,73,68,62,64,61,57,100,85,66,30.27,30.20,30.12,10,8,1,7,5,,0.01,6,Rain,110
2012-3-23,73,68,62,64,61,57,100,83,59,30.14,30.07,29.96,10,9,3,13,6,22,0.04,7,Rain,171
2012-3-24,72,64,54,61,53,42,94,72,35,29.95,29.88,29.79,10,10,10,14,6,25,0.00,4,,233
2012-3-25,73,60,48,46,44,40,86,58,31,29.92,29.85,29.80,10,10,10,15,9,23,0.00,1,,308
2012-3-26,82,66,53,50,45,39,83,50,24,30.04,29.98,29.91,10,10,10,9,5,,0.00,0,,297
2012-3-27,72,64,55,45,41,35,64,46,31,30.28,30.19,30.05,10,10,10,17,7,26,0.00,0,,97
2012-3-28,79,66,53,56,50,42,94,65,37,30.24,30.15,30.01,10,9,3,18,4,25,0.00,3,,258
2012-3-29,81,70,59,56,52,49,78,57,35,30.02,29.98,29.90,10,10,10,13,7,22,0.00,1,,259
2012-3-30,80,68,55,61,56,49,96,70,35,30.00,29.93,29.86,10,9,3,12,5,18,0.14,4,Rain,237
2012-3-31,77,68,61,63,60,54,100,86,54,29.93,29.87,29.78,10,7,2,12,7,22,0.60,6,Rain-Thunderstorm,251